Regional Weather Roundup
Issued by NWS

Home | Current Version | Previous Version | Text Only | Print | Product List | Glossary On
Versions: 1 2 3 4 5 6 7 8 9 10 11 12 13 14 15 16 17 18 19 20 21 22 23 24 25 26 27
000
ASUS45 KREV 210910
RWRNV
NEVADA REGIONAL WEATHER ROUNDUP
NATIONAL WEATHER SERVICE RENO NV
200 AM PDT MON APR 21 2014

NOTE: "FAIR" INDICATES FEW OR NO CLOUDS BELOW 12,000 FEET WITH NO
SIGNIFICANT WEATHER AND/OR OBSTRUCTIONS TO VISIBILITY.

NVZ001-003-004-211000-
WESTERN NEVADA

CITY           SKY/WX    TMP DP  RH WIND       PRES   REMARKS
RENO           CLEAR     51  28  41 CALM      30.17F
CARSON CITY    FAIR      46  21  36 CALM      30.19S
MINDEN         CLEAR     39  30  70 CALM      30.20S
SLIDE MTN        N/A     37  16  41 SE10        N/A
FALLON         CLEAR     44  21  40 W6        30.14S
LOVELOCK       CLEAR     37   6  27 S3        30.15S
HAWTHORNE      CLEAR     50  18  27 S6        30.15F
$$

NVZ002-CAZ072-073-211000-
NORTHERN AND CENTRAL SIERRA

CITY           SKY/WX    TMP DP  RH WIND       PRES   REMARKS
S. LAKE TAHOE  CLEAR     37  28  70 CALM      30.23F
TRUCKEE        CLEAR     32  32 100 CALM      30.23F
SQUAW VLY 8000   N/A     39  30  70 CALM        N/A
SUSANVILLE     CLEAR     39  32  75 CALM      30.14
BLUE CANYON    CLEAR     55  31  39 NE3       30.19F
MAMMOTH LAKES  FAIR      39  19  45 W9        30.27S
BRIDGEPORT     FAIR      32  21  64 CALM      30.25F
$$

NVZ030-031-036-211000-
NORTHERN NEVADA

CITY           SKY/WX    TMP DP  RH WIND       PRES   REMARKS
ELKO           CLEAR     35  17  47 CALM      30.22F
WINNEMUCCA     CLEAR     48  17  29 NE12      30.18F
WENDOVER       CLEAR     52  18  25 W6        30.21F
$$

NVZ035-037-211000-
CENTRAL NEVADA

CITY           SKY/WX    TMP DP  RH WIND       PRES   REMARKS
ELY            CLEAR     36  20  52 S10       30.25S
EUREKA           N/A     37  21  52 S3        30.22F
$$

NVZ013-014-211000-
SOUTH CENTRAL NEVADA

CITY           SKY/WX    TMP DP  RH WIND       PRES   REMARKS
TONOPAH        MOCLDY    51  13  21 N12       30.18F
$$

NVZ017-020-022-211000-
SOUTHERN NEVADA

CITY           SKY/WX    TMP DP  RH WIND       PRES   REMARKS
LAS VEGAS      CLEAR     75  30  19 S12       29.96S
N. LAS VEGAS   CLEAR     73  31  21 CALM      29.99S
NELLIS AFB     CLEAR     69  33  26 NE6       29.98F
HENDERSON      HVY RAIN  69  30  23 S7        30.03S
MERCURY        CLEAR     63  27  25 N8        30.05S
$$



USA.gov is the U.S. government's official web portal to all federal, state and local government web resources and services.